Year,Month,Day,Hour,Minute,Value (Times are PST for temperature in C)
2017,08,02,00,00,19.20
2017,08,02,00,01,19.10
2017,08,02,00,02,19.10
2017,08,02,00,03,19.10
2017,08,02,00,04,19.10
2017,08,02,00,05,19.10
2017,08,02,00,06,19.10
2017,08,02,00,07,19.10
2017,08,02,00,08,19.10
2017,08,02,00,09,19.00
2017,08,02,00,10,18.90
2017,08,02,00,11,18.90
2017,08,02,00,12,18.90
2017,08,02,00,13,18.90
2017,08,02,00,14,18.90
2017,08,02,00,15,18.90
2017,08,02,00,16,18.90
2017,08,02,00,17,18.80
2017,08,02,00,18,18.80
2017,08,02,00,19,18.80
2017,08,02,00,20,18.80
2017,08,02,00,21,18.80
2017,08,02,00,22,18.80
2017,08,02,00,23,18.70
2017,08,02,00,24,18.70
2017,08,02,00,25,18.70
2017,08,02,00,26,18.70
2017,08,02,00,27,18.70
2017,08,02,00,28,18.70
2017,08,02,00,29,18.70
2017,08,02,00,30,18.60
2017,08,02,00,31,18.60
2017,08,02,00,32,18.60
2017,08,02,00,33,18.60
2017,08,02,00,34,18.60
2017,08,02,00,35,18.60
2017,08,02,00,36,18.60
2017,08,02,00,37,18.60
2017,08,02,00,38,18.60
2017,08,02,00,39,18.60
2017,08,02,00,40,18.60
2017,08,02,00,41,18.60
2017,08,02,00,42,18.60
2017,08,02,00,43,18.60
2017,08,02,00,44,18.60
2017,08,02,00,45,18.60
2017,08,02,00,46,18.60
2017,08,02,00,47,18.60
2017,08,02,00,48,18.60
2017,08,02,00,49,18.60
2017,08,02,00,50,18.60
2017,08,02,00,51,18.50
2017,08,02,00,52,18.50
2017,08,02,00,53,18.50
2017,08,02,00,54,18.50
2017,08,02,00,55,18.50
2017,08,02,00,56,18.50
2017,08,02,00,57,18.50
2017,08,02,00,58,18.50
2017,08,02,00,59,18.50
2017,08,02,01,00,18.50
2017,08,02,01,01,18.50
2017,08,02,01,02,18.50
2017,08,02,01,03,18.50
2017,08,02,01,04,18.60
2017,08,02,01,05,18.60
2017,08,02,01,06,18.60
2017,08,02,01,07,18.60
2017,08,02,01,08,18.60
2017,08,02,01,09,18.60
2017,08,02,01,10,18.60
2017,08,02,01,11,18.60
2017,08,02,01,12,18.60
2017,08,02,01,13,18.60
2017,08,02,01,14,18.60
2017,08,02,01,15,18.60
2017,08,02,01,16,18.50
2017,08,02,01,17,18.50
2017,08,02,01,18,18.50
2017,08,02,01,19,18.50
2017,08,02,01,20,18.50
2017,08,02,01,21,18.50
2017,08,02,01,22,18.40
2017,08,02,01,23,18.40
2017,08,02,01,24,18.40
2017,08,02,01,25,18.40
2017,08,02,01,26,18.30
2017,08,02,01,27,18.30
2017,08,02,01,28,18.30
2017,08,02,01,29,18.30
2017,08,02,01,30,18.20
2017,08,02,01,31,18.20
2017,08,02,01,32,18.20
2017,08,02,01,33,18.20
2017,08,02,01,34,18.20
2017,08,02,01,35,18.20
2017,08,02,01,36,18.20
2017,08,02,01,37,18.20
2017,08,02,01,38,18.20
2017,08,02,01,39,18.20
2017,08,02,01,40,18.20
2017,08,02,01,41,18.10
2017,08,02,01,42,18.10
2017,08,02,01,43,18.10
2017,08,02,01,44,18.10
2017,08,02,01,45,18.10
2017,08,02,01,46,18.10
2017,08,02,01,47,18.10
2017,08,02,01,48,18.10
2017,08,02,01,49,18.10
2017,08,02,01,50,18.10
2017,08,02,01,51,18.10
2017,08,02,01,52,18.10
2017,08,02,01,53,18.10
2017,08,02,01,54,18.10
2017,08,02,01,55,18.00
2017,08,02,01,56,17.90
2017,08,02,01,57,17.90
2017,08,02,01,58,17.90
2017,08,02,01,59,17.90
2017,08,02,02,00,17.90
2017,08,02,02,01,17.90
2017,08,02,02,02,17.90
2017,08,02,02,03,17.80
2017,08,02,02,04,17.80
2017,08,02,02,05,17.80
2017,08,02,02,06,17.80
2017,08,02,02,07,17.80
2017,08,02,02,08,17.70
2017,08,02,02,09,17.70
2017,08,02,02,10,17.70
2017,08,02,02,11,17.70
2017,08,02,02,12,17.70
2017,08,02,02,13,17.70
2017,08,02,02,14,17.70
2017,08,02,02,15,17.70
2017,08,02,02,16,17.70
2017,08,02,02,17,17.60
2017,08,02,02,18,17.60
2017,08,02,02,19,17.60
2017,08,02,02,20,17.60
2017,08,02,02,21,17.60
2017,08,02,02,22,17.60
2017,08,02,02,23,17.60
2017,08,02,02,24,17.60
2017,08,02,02,25,17.60
2017,08,02,02,26,17.60
2017,08,02,02,27,17.60
2017,08,02,02,28,17.60
2017,08,02,02,29,17.60
2017,08,02,02,30,17.60
2017,08,02,02,31,17.60
2017,08,02,02,32,17.60
2017,08,02,02,33,17.50
2017,08,02,02,34,17.50
2017,08,02,02,35,17.50
2017,08,02,02,36,17.50
2017,08,02,02,37,17.50
2017,08,02,02,38,17.50
2017,08,02,02,39,17.40
2017,08,02,02,40,17.40
2017,08,02,02,41,17.40
2017,08,02,02,42,17.40
2017,08,02,02,43,17.30
2017,08,02,02,44,17.30
2017,08,02,02,45,17.30
2017,08,02,02,46,17.30
2017,08,02,02,47,17.30
2017,08,02,02,48,17.20
2017,08,02,02,49,17.20
2017,08,02,02,50,17.20
2017,08,02,02,51,17.10
2017,08,02,02,52,17.10
2017,08,02,02,53,17.10
2017,08,02,02,54,17.00
2017,08,02,02,55,17.00
2017,08,02,02,56,17.00
2017,08,02,02,57,17.00
2017,08,02,02,58,17.00
2017,08,02,02,59,17.00
2017,08,02,03,00,16.90
2017,08,02,03,01,16.90
2017,08,02,03,02,16.90
2017,08,02,03,03,16.90
2017,08,02,03,04,16.90
2017,08,02,03,05,16.90
2017,08,02,03,06,16.90
2017,08,02,03,07,16.80
2017,08,02,03,08,16.80
2017,08,02,03,09,16.80
2017,08,02,03,10,16.80
2017,08,02,03,11,16.80
2017,08,02,03,12,16.80
2017,08,02,03,13,16.80
2017,08,02,03,14,16.80
2017,08,02,03,15,16.80
2017,08,02,03,16,16.80
2017,08,02,03,17,16.70
2017,08,02,03,18,16.70
2017,08,02,03,19,16.70
2017,08,02,03,20,16.70
2017,08,02,03,21,16.70
2017,08,02,03,22,16.70
2017,08,02,03,23,16.70
2017,08,02,03,24,16.70
2017,08,02,03,25,16.70
2017,08,02,03,26,16.70
2017,08,02,03,27,16.70
2017,08,02,03,28,16.70
2017,08,02,03,29,16.60
2017,08,02,03,30,16.60
2017,08,02,03,31,16.60
2017,08,02,03,32,16.60
2017,08,02,03,33,16.60
2017,08,02,03,34,16.60
2017,08,02,03,35,16.60
2017,08,02,03,36,16.60
2017,08,02,03,37,16.60
2017,08,02,03,38,16.60
2017,08,02,03,39,16.60
2017,08,02,03,40,16.60
2017,08,02,03,41,16.60
2017,08,02,03,42,16.60
2017,08,02,03,43,16.60
2017,08,02,03,44,16.60
2017,08,02,03,45,16.60
2017,08,02,03,46,16.60
2017,08,02,03,47,16.60
2017,08,02,03,48,16.70
2017,08,02,03,49,16.70
2017,08,02,03,50,16.70
2017,08,02,03,51,16.70
2017,08,02,03,52,16.80
2017,08,02,03,53,16.80
2017,08,02,03,54,16.90
2017,08,02,03,55,17.00
2017,08,02,03,56,17.00
2017,08,02,03,57,17.10
2017,08,02,03,58,17.20
2017,08,02,03,59,17.20
2017,08,02,04,00,17.30
2017,08,02,04,01,17.30
2017,08,02,04,02,17.30
2017,08,02,04,03,17.30
2017,08,02,04,04,17.40
2017,08,02,04,05,17.40
2017,08,02,04,06,17.40
2017,08,02,04,07,17.50
2017,08,02,04,08,17.50
2017,08,02,04,09,17.50
2017,08,02,04,10,17.50
2017,08,02,04,11,17.50
2017,08,02,04,12,17.50
2017,08,02,04,13,17.40
2017,08,02,04,14,17.40
2017,08,02,04,15,17.40
2017,08,02,04,16,17.30
2017,08,02,04,17,17.30
2017,08,02,04,18,17.30
2017,08,02,04,19,17.30
2017,08,02,04,20,17.20
2017,08,02,04,21,17.20
2017,08,02,04,22,17.10
2017,08,02,04,23,17.10
2017,08,02,04,24,17.10
2017,08,02,04,25,17.00
2017,08,02,04,26,17.00
2017,08,02,04,27,17.00
2017,08,02,04,28,16.90
2017,08,02,04,29,16.90
2017,08,02,04,30,16.90
2017,08,02,04,31,16.90
2017,08,02,04,32,16.90
2017,08,02,04,33,16.80
2017,08,02,04,34,16.80
2017,08,02,04,35,16.80
2017,08,02,04,36,16.70
2017,08,02,04,37,16.70
2017,08,02,04,38,16.70
2017,08,02,04,39,16.70
2017,08,02,04,40,16.70
2017,08,02,04,41,16.60
2017,08,02,04,42,16.60
2017,08,02,04,43,16.60
2017,08,02,04,44,16.50
2017,08,02,04,45,16.40
2017,08,02,04,46,16.40
2017,08,02,04,47,16.40
2017,08,02,04,48,16.40
2017,08,02,04,49,16.40
2017,08,02,04,50,16.40
2017,08,02,04,51,16.40
2017,08,02,04,52,16.40
2017,08,02,04,53,16.40
2017,08,02,04,54,16.40
2017,08,02,04,55,16.30
2017,08,02,04,56,16.30
2017,08,02,04,57,16.30
2017,08,02,04,58,16.30
2017,08,02,04,59,16.30
2017,08,02,05,00,16.30
2017,08,02,05,01,16.20
2017,08,02,05,02,16.20
2017,08,02,05,03,16.20
2017,08,02,05,04,16.20
2017,08,02,05,05,16.20
2017,08,02,05,06,16.20
2017,08,02,05,07,16.20
2017,08,02,05,08,16.20
2017,08,02,05,09,16.20
2017,08,02,05,10,16.20
2017,08,02,05,11,16.20
2017,08,02,05,12,16.20
2017,08,02,05,13,16.20
2017,08,02,05,14,16.20
2017,08,02,05,15,16.20
2017,08,02,05,16,16.20
2017,08,02,05,17,16.20
2017,08,02,05,18,16.20
2017,08,02,05,19,16.30
2017,08,02,05,20,16.30
2017,08,02,05,21,16.30
2017,08,02,05,22,16.30
2017,08,02,05,23,16.30
2017,08,02,05,24,16.40
2017,08,02,05,25,16.40
2017,08,02,05,26,16.40
2017,08,02,05,27,16.40
2017,08,02,05,28,16.40
2017,08,02,05,29,16.40
2017,08,02,05,30,16.40
2017,08,02,05,31,16.40
2017,08,02,05,32,16.40
2017,08,02,05,33,16.40
2017,08,02,05,34,16.40
2017,08,02,05,35,16.40
2017,08,02,05,36,16.40
2017,08,02,05,37,16.40
2017,08,02,05,38,16.40
2017,08,02,05,39,16.40
2017,08,02,05,40,16.30
2017,08,02,05,41,16.30
2017,08,02,05,42,16.30
2017,08,02,05,43,16.30
2017,08,02,05,44,16.30
2017,08,02,05,45,16.30
2017,08,02,05,46,16.20
2017,08,02,05,47,16.20
2017,08,02,05,48,16.20
2017,08,02,05,49,16.20
2017,08,02,05,50,16.10
2017,08,02,05,51,16.10
2017,08,02,05,52,16.10
2017,08,02,05,53,16.10
2017,08,02,05,54,16.10
2017,08,02,05,55,16.10
2017,08,02,05,56,16.10
2017,08,02,05,57,16.10
2017,08,02,05,58,16.10
2017,08,02,05,59,16.10
2017,08,02,06,00,16.10
2017,08,02,06,01,16.10
2017,08,02,06,02,16.10
2017,08,02,06,03,16.10
2017,08,02,06,04,16.00
2017,08,02,06,05,15.90
2017,08,02,06,06,15.90
2017,08,02,06,07,15.90
2017,08,02,06,08,15.90
2017,08,02,06,09,15.90
2017,08,02,06,10,15.90
2017,08,02,06,11,15.90
2017,08,02,06,12,15.90
2017,08,02,06,13,15.90
2017,08,02,06,14,15.90
2017,08,02,06,15,15.90
2017,08,02,06,16,15.90
2017,08,02,06,17,15.90
2017,08,02,06,18,15.90
2017,08,02,06,19,15.90
2017,08,02,06,20,15.90
2017,08,02,06,21,15.90
2017,08,02,06,22,15.90
2017,08,02,06,23,15.90
2017,08,02,06,24,15.90
2017,08,02,06,25,15.90
2017,08,02,06,26,15.90
2017,08,02,06,27,15.80
2017,08,02,06,28,15.80
2017,08,02,06,29,15.80
2017,08,02,06,30,15.80
2017,08,02,06,31,15.80
2017,08,02,06,32,15.80
2017,08,02,06,33,15.80
2017,08,02,06,34,15.80
2017,08,02,06,35,15.80
2017,08,02,06,36,15.80
2017,08,02,06,37,15.80
2017,08,02,06,38,15.80
2017,08,02,06,39,15.80
2017,08,02,06,40,15.80
2017,08,02,06,41,15.80
2017,08,02,06,42,15.80
2017,08,02,06,43,15.80
2017,08,02,06,44,15.80
2017,08,02,06,45,15.80
2017,08,02,06,46,15.80
2017,08,02,06,47,15.80
2017,08,02,06,48,15.80
2017,08,02,06,49,15.80
2017,08,02,06,50,15.80
2017,08,02,06,51,15.80
2017,08,02,06,52,15.80
2017,08,02,06,53,15.90
2017,08,02,06,54,15.90
2017,08,02,06,55,15.90
2017,08,02,06,56,15.90
2017,08,02,06,57,15.90
2017,08,02,06,58,15.90
2017,08,02,06,59,16.00
2017,08,02,07,00,16.10
2017,08,02,07,01,16.10
2017,08,02,07,02,16.10
2017,08,02,07,03,16.10
2017,08,02,07,04,16.10
2017,08,02,07,05,16.10
2017,08,02,07,06,16.10
2017,08,02,07,07,16.10
2017,08,02,07,08,16.10
2017,08,02,07,09,16.20
2017,08,02,07,10,16.20
2017,08,02,07,11,16.20
2017,08,02,07,12,16.20
2017,08,02,07,13,16.30
2017,08,02,07,14,16.30
2017,08,02,07,15,16.30
2017,08,02,07,16,16.40
2017,08,02,07,17,16.40
2017,08,02,07,18,16.40
2017,08,02,07,19,16.40
2017,08,02,07,20,16.50
2017,08,02,07,21,16.60
2017,08,02,07,22,16.60
2017,08,02,07,23,16.70
2017,08,02,07,24,16.70
2017,08,02,07,25,16.70
2017,08,02,07,26,16.70
2017,08,02,07,27,16.80
2017,08,02,07,28,16.80
2017,08,02,07,29,16.90
2017,08,02,07,30,16.90
2017,08,02,07,31,16.90
2017,08,02,07,32,17.00
2017,08,02,07,33,17.00
2017,08,02,07,34,17.00
2017,08,02,07,35,17.10
2017,08,02,07,36,17.10
2017,08,02,07,37,17.20
2017,08,02,07,38,17.20
2017,08,02,07,39,17.30
2017,08,02,07,40,17.30
2017,08,02,07,41,17.30
2017,08,02,07,42,17.40
2017,08,02,07,43,17.50
2017,08,02,07,44,17.50
2017,08,02,07,45,17.60
2017,08,02,07,46,17.60
2017,08,02,07,47,17.70
2017,08,02,07,48,17.70
2017,08,02,07,49,17.70
2017,08,02,07,50,17.80
2017,08,02,07,51,17.80
2017,08,02,07,52,17.90
2017,08,02,07,53,17.90
2017,08,02,07,54,17.90
2017,08,02,07,55,17.90
2017,08,02,07,56,18.10
2017,08,02,07,57,18.10
2017,08,02,07,58,18.10
2017,08,02,07,59,18.20
2017,08,02,08,00,18.20
2017,08,02,08,01,18.30
2017,08,02,08,02,18.50
2017,08,02,08,03,18.50
2017,08,02,08,04,18.60
2017,08,02,08,05,18.70
2017,08,02,08,06,18.80
2017,08,02,08,07,18.90
2017,08,02,08,08,18.90
2017,08,02,08,09,19.00
2017,08,02,08,10,19.10
2017,08,02,08,11,19.10
2017,08,02,08,12,19.20
2017,08,02,08,13,19.30
2017,08,02,08,14,19.30
2017,08,02,08,15,19.40
2017,08,02,08,16,19.40
2017,08,02,08,17,19.50
2017,08,02,08,18,19.60
2017,08,02,08,19,19.60
2017,08,02,08,20,19.70
2017,08,02,08,21,19.70
2017,08,02,08,22,19.80
2017,08,02,08,23,19.80
2017,08,02,08,24,19.90
2017,08,02,08,25,19.90
2017,08,02,08,26,19.90
2017,08,02,08,27,19.90
2017,08,02,08,28,20.00
2017,08,02,08,29,20.10
2017,08,02,08,30,20.10
2017,08,02,08,31,20.20
2017,08,02,08,32,20.20
2017,08,02,08,33,20.20
2017,08,02,08,34,20.30
2017,08,02,08,35,20.40
2017,08,02,08,36,20.50
2017,08,02,08,37,20.60
2017,08,02,08,38,20.60
2017,08,02,08,39,20.70
2017,08,02,08,40,20.80
2017,08,02,08,41,20.90
2017,08,02,08,42,20.90
2017,08,02,08,43,21.00
2017,08,02,08,44,21.00
2017,08,02,08,45,21.10
2017,08,02,08,46,21.20
2017,08,02,08,47,21.30
2017,08,02,08,48,21.30
2017,08,02,08,49,21.30
2017,08,02,08,50,21.30
2017,08,02,08,51,21.30
2017,08,02,08,52,21.30
2017,08,02,08,53,21.40
2017,08,02,08,54,21.50
2017,08,02,08,55,21.60
2017,08,02,08,56,21.60
2017,08,02,08,57,21.60
2017,08,02,08,58,21.70
2017,08,02,08,59,21.80
2017,08,02,09,00,21.80
2017,08,02,09,01,21.90
2017,08,02,09,02,21.90
2017,08,02,09,03,21.90
2017,08,02,09,04,22.00
2017,08,02,09,05,22.00
2017,08,02,09,06,22.10
2017,08,02,09,07,22.10
2017,08,02,09,08,22.20
2017,08,02,09,09,22.20
2017,08,02,09,10,22.30
2017,08,02,09,11,22.30
2017,08,02,09,12,22.30
2017,08,02,09,13,22.30
2017,08,02,09,14,22.40
2017,08,02,09,15,22.40
2017,08,02,09,16,22.50
2017,08,02,09,17,22.60
2017,08,02,09,18,22.60
2017,08,02,09,19,22.70
2017,08,02,09,20,22.70
2017,08,02,09,21,22.80
2017,08,02,09,22,22.80
2017,08,02,09,23,22.90
2017,08,02,09,24,22.90
2017,08,02,09,25,22.90
2017,08,02,09,26,23.10
2017,08,02,09,27,23.10
2017,08,02,09,28,23.20
2017,08,02,09,29,23.30
2017,08,02,09,30,23.30
2017,08,02,09,31,23.30
2017,08,02,09,32,23.40
2017,08,02,09,33,23.50
2017,08,02,09,34,23.60
2017,08,02,09,35,23.60
2017,08,02,09,36,23.70
2017,08,02,09,37,23.70
2017,08,02,09,38,23.80
2017,08,02,09,39,23.80
2017,08,02,09,40,23.90
2017,08,02,09,41,24.00
2017,08,02,09,42,24.10
2017,08,02,09,43,24.10
2017,08,02,09,44,24.10
2017,08,02,09,45,24.20
2017,08,02,09,46,24.20
2017,08,02,09,47,24.30
2017,08,02,09,48,24.40
2017,08,02,09,49,24.40
2017,08,02,09,50,24.50
2017,08,02,09,51,24.50
2017,08,02,09,52,24.60
2017,08,02,09,53,24.60
2017,08,02,09,54,24.70
2017,08,02,09,55,24.70
2017,08,02,09,56,24.70
2017,08,02,09,57,24.70
2017,08,02,09,58,24.70
2017,08,02,09,59,24.70
2017,08,02,10,00,24.70
2017,08,02,10,01,24.70
2017,08,02,10,02,24.70
2017,08,02,10,03,24.70
2017,08,02,10,04,24.70
2017,08,02,10,05,24.80
2017,08,02,10,06,24.80
2017,08,02,10,07,24.80
2017,08,02,10,08,24.90
2017,08,02,10,09,24.90
2017,08,02,10,10,25.00
2017,08,02,10,11,25.00
2017,08,02,10,12,25.10
2017,08,02,10,13,25.20
2017,08,02,10,14,25.20
2017,08,02,10,15,25.30
2017,08,02,10,16,25.30
2017,08,02,10,17,25.40
2017,08,02,10,18,25.50
2017,08,02,10,19,25.50
2017,08,02,10,20,25.50
2017,08,02,10,21,25.60
2017,08,02,10,22,25.60
2017,08,02,10,23,25.60
2017,08,02,10,24,25.60
2017,08,02,10,25,25.60
2017,08,02,10,26,25.60
2017,08,02,10,27,25.60
2017,08,02,10,28,25.60
2017,08,02,10,29,25.60
2017,08,02,10,30,25.60
2017,08,02,10,31,25.50
2017,08,02,10,32,25.50
2017,08,02,10,33,25.50
2017,08,02,10,34,25.50
2017,08,02,10,35,25.50
2017,08,02,10,36,25.60
2017,08,02,10,37,25.60
2017,08,02,10,38,25.60
2017,08,02,10,39,25.70
2017,08,02,10,40,25.60
2017,08,02,10,41,25.60
2017,08,02,10,42,25.60
2017,08,02,10,43,25.60
2017,08,02,10,44,25.60
2017,08,02,10,45,25.60
2017,08,02,10,46,25.60
2017,08,02,10,47,25.60
2017,08,02,10,48,25.60
2017,08,02,10,49,25.60
2017,08,02,10,50,25.60
2017,08,02,10,51,25.60
2017,08,02,10,52,25.70
2017,08,02,10,53,25.70
2017,08,02,10,54,25.80
2017,08,02,10,55,25.80
2017,08,02,10,56,25.90
2017,08,02,10,57,25.90
2017,08,02,10,58,25.90
2017,08,02,10,59,25.90
2017,08,02,11,00,26.00
2017,08,02,11,01,26.00
2017,08,02,11,02,26.00
2017,08,02,11,03,26.10
2017,08,02,11,04,26.10
2017,08,02,11,05,26.10
2017,08,02,11,06,26.10
2017,08,02,11,07,26.10
2017,08,02,11,08,26.00
2017,08,02,11,09,26.00
2017,08,02,11,10,26.00
2017,08,02,11,11,26.10
2017,08,02,11,12,26.10
2017,08,02,11,13,26.20
2017,08,02,11,14,26.20
2017,08,02,11,15,26.30
2017,08,02,11,16,26.40
2017,08,02,11,17,26.40
2017,08,02,11,18,26.30
2017,08,02,11,19,26.40
2017,08,02,11,20,26.40
2017,08,02,11,21,26.40
2017,08,02,11,22,26.40
2017,08,02,11,23,26.40
2017,08,02,11,24,26.40
2017,08,02,11,25,26.40
2017,08,02,11,26,26.40
2017,08,02,11,27,26.50
2017,08,02,11,28,26.60
2017,08,02,11,29,26.60
2017,08,02,11,30,26.60
2017,08,02,11,31,26.60
2017,08,02,11,32,26.70
2017,08,02,11,33,26.70
2017,08,02,11,34,26.70
2017,08,02,11,35,26.70
2017,08,02,11,36,26.70
2017,08,02,11,37,26.60
2017,08,02,11,38,26.60
2017,08,02,11,39,26.60
2017,08,02,11,40,26.60
2017,08,02,11,41,26.60
2017,08,02,11,42,26.60
2017,08,02,11,43,26.60
2017,08,02,11,44,26.60
2017,08,02,11,45,26.60
2017,08,02,11,46,26.60
2017,08,02,11,47,26.70
2017,08,02,11,48,26.80
2017,08,02,11,49,26.80
2017,08,02,11,50,26.90
2017,08,02,11,51,27.00
2017,08,02,11,52,27.10
2017,08,02,11,53,27.10
2017,08,02,11,54,27.10
2017,08,02,11,55,27.10
2017,08,02,11,56,27.10
2017,08,02,11,57,27.10
2017,08,02,11,58,27.00
2017,08,02,11,59,26.90
2017,08,02,12,00,26.90
2017,08,02,12,01,26.90
2017,08,02,12,02,26.90
2017,08,02,12,03,27.00
2017,08,02,12,04,27.00
2017,08,02,12,05,27.00
2017,08,02,12,06,26.90
2017,08,02,12,07,26.90
2017,08,02,12,08,27.00
2017,08,02,12,09,27.10
2017,08,02,12,10,27.00
2017,08,02,12,11,26.90
2017,08,02,12,12,26.90
2017,08,02,12,13,26.90
2017,08,02,12,14,26.90
2017,08,02,12,15,26.90
2017,08,02,12,16,27.00
2017,08,02,12,17,27.10
2017,08,02,12,18,27.10
2017,08,02,12,19,27.00
2017,08,02,12,20,26.90
2017,08,02,12,21,26.90
2017,08,02,12,22,27.00
2017,08,02,12,23,27.10
2017,08,02,12,24,27.20
2017,08,02,12,25,27.30
2017,08,02,12,26,27.40
2017,08,02,12,27,27.40
2017,08,02,12,28,27.50
2017,08,02,12,29,27.60
2017,08,02,12,30,27.60
2017,08,02,12,31,27.70
2017,08,02,12,32,27.70
2017,08,02,12,33,27.70
2017,08,02,12,34,27.80
2017,08,02,12,35,27.80
2017,08,02,12,36,27.90
2017,08,02,12,37,27.90
2017,08,02,12,38,27.90
2017,08,02,12,39,28.00
2017,08,02,12,40,28.00
2017,08,02,12,41,28.00
2017,08,02,12,42,28.00
2017,08,02,12,43,28.00
2017,08,02,12,44,27.90
2017,08,02,12,45,27.90
2017,08,02,12,46,27.90
2017,08,02,12,47,28.00
2017,08,02,12,48,28.00
2017,08,02,12,49,28.00
2017,08,02,12,50,28.00
2017,08,02,12,51,28.10
2017,08,02,12,52,28.10
2017,08,02,12,53,28.10
2017,08,02,12,54,28.10
2017,08,02,12,55,28.00
2017,08,02,12,56,28.00
2017,08,02,12,57,28.00
2017,08,02,12,58,28.00
2017,08,02,12,59,28.10
2017,08,02,13,00,28.10
2017,08,02,13,01,28.20
2017,08,02,13,02,28.20
2017,08,02,13,03,28.20
2017,08,02,13,04,28.30
2017,08,02,13,05,28.30
2017,08,02,13,06,28.30
2017,08,02,13,07,28.40
2017,08,02,13,08,28.40
2017,08,02,13,09,28.40
2017,08,02,13,10,28.40
2017,08,02,13,11,28.40
2017,08,02,13,12,28.40
2017,08,02,13,13,28.40
2017,08,02,13,14,28.50
2017,08,02,13,15,28.60
2017,08,02,13,16,28.60
2017,08,02,13,17,28.60
2017,08,02,13,18,28.60
2017,08,02,13,19,28.60
2017,08,02,13,20,28.60
2017,08,02,13,21,28.60
2017,08,02,13,22,28.60
2017,08,02,13,23,28.60
2017,08,02,13,24,28.60
2017,08,02,13,25,28.60
2017,08,02,13,26,28.70
2017,08,02,13,27,28.80
2017,08,02,13,28,28.80
2017,08,02,13,29,28.90
2017,08,02,13,30,28.90
2017,08,02,13,31,28.90
2017,08,02,13,32,28.90
2017,08,02,13,33,29.10
2017,08,02,13,34,29.10
2017,08,02,13,35,29.10
2017,08,02,13,36,29.10
2017,08,02,13,37,29.10
2017,08,02,13,38,29.20
2017,08,02,13,39,29.20
2017,08,02,13,40,29.30
2017,08,02,13,41,29.40
2017,08,02,13,42,29.40
2017,08,02,13,43,29.40
2017,08,02,13,44,29.50
2017,08,02,13,45,29.50
2017,08,02,13,46,29.60
2017,08,02,13,47,29.60
2017,08,02,13,48,29.60
2017,08,02,13,49,29.60
2017,08,02,13,50,29.60
2017,08,02,13,51,29.60
2017,08,02,13,52,29.70
2017,08,02,13,53,29.70
2017,08,02,13,54,29.70
2017,08,02,13,55,29.70
2017,08,02,13,56,29.80
2017,08,02,13,57,29.80
2017,08,02,13,58,29.90
2017,08,02,13,59,30.00
2017,08,02,14,00,30.10
2017,08,02,14,01,30.10
2017,08,02,14,02,30.30
2017,08,02,14,03,30.30
2017,08,02,14,04,30.50
2017,08,02,14,05,30.60
2017,08,02,14,06,30.70
2017,08,02,14,07,30.70
2017,08,02,14,08,30.70
2017,08,02,14,09,30.70
2017,08,02,14,10,30.70
2017,08,02,14,11,30.80
2017,08,02,14,12,30.80
2017,08,02,14,13,30.90
2017,08,02,14,14,30.90
2017,08,02,14,15,31.00
2017,08,02,14,16,31.00
2017,08,02,14,17,31.00
2017,08,02,14,18,31.00
2017,08,02,14,19,31.00
2017,08,02,14,20,31.00
2017,08,02,14,21,31.00
2017,08,02,14,22,31.10
2017,08,02,14,23,31.10
2017,08,02,14,24,31.10
2017,08,02,14,25,31.10
2017,08,02,14,26,31.20
2017,08,02,14,27,31.20
2017,08,02,14,28,31.20
2017,08,02,14,29,31.10
2017,08,02,14,30,31.10
2017,08,02,14,31,31.10
2017,08,02,14,32,31.10
2017,08,02,14,33,31.10
2017,08,02,14,34,31.00
2017,08,02,14,35,31.00
2017,08,02,14,36,30.90
2017,08,02,14,37,30.90
2017,08,02,14,38,30.80
2017,08,02,14,39,30.80
2017,08,02,14,40,30.70
2017,08,02,14,41,30.70
2017,08,02,14,42,30.60
2017,08,02,14,43,30.60
2017,08,02,14,44,30.60
2017,08,02,14,45,30.60
2017,08,02,14,46,30.50
2017,08,02,14,47,30.40
2017,08,02,14,48,30.50
2017,08,02,14,49,30.60
2017,08,02,14,50,30.60
2017,08,02,14,51,30.60
2017,08,02,14,52,30.70
2017,08,02,14,53,30.70
2017,08,02,14,54,30.70
2017,08,02,14,55,30.70
2017,08,02,14,56,30.70
2017,08,02,14,57,30.70
2017,08,02,14,58,30.70
2017,08,02,14,59,30.70
2017,08,02,15,00,30.60
2017,08,02,15,01,30.60
2017,08,02,15,02,30.60
2017,08,02,15,03,30.60
2017,08,02,15,04,30.60
2017,08,02,15,05,30.60
2017,08,02,15,06,30.60
2017,08,02,15,07,30.60
2017,08,02,15,08,30.60
2017,08,02,15,09,30.60
2017,08,02,15,10,30.70
2017,08,02,15,11,30.70
2017,08,02,15,12,30.70
2017,08,02,15,13,30.80
2017,08,02,15,14,30.80
2017,08,02,15,15,30.80
2017,08,02,15,16,30.80
2017,08,02,15,17,30.80
2017,08,02,15,18,30.70
2017,08,02,15,19,30.70
2017,08,02,15,20,30.70
2017,08,02,15,21,30.70
2017,08,02,15,22,30.70
2017,08,02,15,23,30.70
2017,08,02,15,24,30.80
2017,08,02,15,25,30.80
2017,08,02,15,26,30.80
2017,08,02,15,27,30.90
2017,08,02,15,28,30.80
2017,08,02,15,29,30.90
2017,08,02,15,30,30.90
2017,08,02,15,31,31.00
2017,08,02,15,32,31.00
2017,08,02,15,33,31.00
2017,08,02,15,34,30.80
2017,08,02,15,35,30.80
2017,08,02,15,36,30.80
2017,08,02,15,37,30.80
2017,08,02,15,38,30.90
2017,08,02,15,39,30.90
2017,08,02,15,40,31.00
2017,08,02,15,41,31.00
2017,08,02,15,42,31.10
2017,08,02,15,43,31.10
2017,08,02,15,44,31.10
2017,08,02,15,45,31.20
2017,08,02,15,46,31.20
2017,08,02,15,47,31.30
2017,08,02,15,48,31.30
2017,08,02,15,49,31.40
2017,08,02,15,50,31.40
2017,08,02,15,51,31.50
2017,08,02,15,52,31.60
2017,08,02,15,53,31.60
2017,08,02,15,54,31.60
2017,08,02,15,55,31.60
2017,08,02,15,56,31.60
2017,08,02,15,57,31.60
2017,08,02,15,58,31.60
2017,08,02,15,59,31.40
2017,08,02,16,00,31.40
2017,08,02,16,01,31.40
2017,08,02,16,02,31.50
2017,08,02,16,03,31.60
2017,08,02,16,04,31.60
2017,08,02,16,05,31.60
2017,08,02,16,06,31.60
2017,08,02,16,07,31.70
2017,08,02,16,08,31.70
2017,08,02,16,09,31.70
2017,08,02,16,10,31.70
2017,08,02,16,11,31.70
2017,08,02,16,12,31.80
2017,08,02,16,13,31.80
2017,08,02,16,14,31.80
2017,08,02,16,15,31.80
2017,08,02,16,16,31.80
2017,08,02,16,17,31.80
2017,08,02,16,18,31.80
2017,08,02,16,19,31.80
2017,08,02,16,20,31.80
2017,08,02,16,21,31.80
2017,08,02,16,22,31.80
2017,08,02,16,23,31.70
2017,08,02,16,24,31.70
2017,08,02,16,25,31.70
2017,08,02,16,26,31.70
2017,08,02,16,27,31.70
2017,08,02,16,28,31.70
2017,08,02,16,29,31.60
2017,08,02,16,30,31.60
2017,08,02,16,31,31.50
2017,08,02,16,32,31.40
2017,08,02,16,33,31.40
2017,08,02,16,34,31.40
2017,08,02,16,35,31.40
2017,08,02,16,36,31.30
2017,08,02,16,37,31.30
2017,08,02,16,38,31.20
2017,08,02,16,39,31.10
2017,08,02,16,40,31.10
2017,08,02,16,41,31.10
2017,08,02,16,42,31.00
2017,08,02,16,43,31.00
2017,08,02,16,44,30.90
2017,08,02,16,45,30.90
2017,08,02,16,46,30.90
2017,08,02,16,47,30.80
2017,08,02,16,48,30.80
2017,08,02,16,49,30.80
2017,08,02,16,50,30.80
2017,08,02,16,51,30.70
2017,08,02,16,52,30.80
2017,08,02,16,53,30.80
2017,08,02,16,54,30.80
2017,08,02,16,55,30.90
2017,08,02,16,56,30.90
2017,08,02,16,57,31.00
2017,08,02,16,58,31.10
2017,08,02,16,59,31.10
2017,08,02,17,00,31.10
2017,08,02,17,01,31.20
2017,08,02,17,02,31.20
2017,08,02,17,03,31.30
2017,08,02,17,04,31.30
2017,08,02,17,05,31.30
2017,08,02,17,06,31.30
2017,08,02,17,07,31.30
2017,08,02,17,08,31.40
2017,08,02,17,09,31.30
2017,08,02,17,10,31.30
2017,08,02,17,11,31.30
2017,08,02,17,12,31.30
2017,08,02,17,13,31.30
2017,08,02,17,14,31.30
2017,08,02,17,15,31.30
2017,08,02,17,16,31.40
2017,08,02,17,17,31.40
2017,08,02,17,18,31.40
2017,08,02,17,19,31.40